User: anonymous   Login
Location: Leiter
(44.7178°N, 106.2687°W)
Time: 08:02:55
(UTC+00:00)
Language:

AO-91 - Orbit

View from above orbital plane
View from above orbital plane
View from above satellite
View from above satellite

Ground track
Ground track

The orbit data is extracted from the following two-line orbital elements,

1 43017U 17073E   22175.66680394  .00002264  00000-0  17356-3 0  9991
2 43017  97.6751  69.5662 0248907 163.8960 197.0352 14.81431193248184
Epoch (UTC): 24 June 2022 16:00:11
Eccentricity: 0.0248907
inclination: 97.6751°
perigee height: 450 km
apogee height: 799 km
right ascension of ascending node: 69.5662°
argument of perigee: 163.8960°
revolutions per day: 14.81431193
mean anomaly at epoch: 197.0352°
orbit number at epoch: 24818

The dashed part of the orbit path shows where the satellite is in the earth's shadow,  

DLR